This demonstration page uses our WeatherBlox Daily Observations layout. Learn more.

Left ArrowRight Arrow

Hourly Observations for November 22, 2022

Temp ( °F °C ) Dew Point ( °F °C ) Humidity (%) Winds ( mph kmh ) Pressure ( in mb ) Visibility ( mi km ) Precip ( " mm )
12:55 am 00:55 Clear 25 -4 15 -9.6 65 65 Calm 30.29 1026 10 16 0.00 0.00
1:55 am 01:55 Clear 24 -4.7 17 -8.3 76 76 Calm 30.28 1025 10 16 0.00 0.00
2:55 am 02:55 Clear 25 -3.8 17 -8.1 72 72 Calm 30.27 1025 10 16 0.00 0.00
3:55 am 03:55 Clear 24 -4.7 16 -9 72 72 Calm 30.27 1025 10 16 0.00 0.00
4:55 am 04:55 undefined 21 -5.9 15 -9.6 75 75 Calm 30.25 1024 10 16 0.00 0.00
5:55 am 05:55 Clear 22 -5.5 16 -8.7 78 78 Calm 30.24 1024 10 16 0.00 0.00
6:55 am 06:55 Clear 24 -4.4 16 -9.1 70 70 Calm 30.25 1024 10 16 0.00 0.00
7:55 am 07:55 Sunny 23 -5.1 15 -9.2 73 73 Calm 30.25 1024 10 16 0.00 0.00
8:55 am 08:55 Sunny 26 -3.1 18 -7.8 70 70 ESE 3 6 30.25 1024 10 16 0.00 0.00
9:55 am 09:55 Sunny 34 1.1 20 -6.7 56 56 SE 3 6 30.24 1024 10 16 0.00 0.00
10:55 am 10:55 Sunny 42 5.4 20 -6.8 41 41 S 3 6 30.21 1023 10 16 0.00 0.00
11:55 am 11:55 Sunny 49 9.7 20 -6.6 31 31 SSE 5 7 30.19 1022 10 16 0.00 0.00
12:55 pm 12:55 Sunny 56 13.2 19 -7.5 23 23 SSE 6 9 30.16 1021 10 16 0.00 0.00
1:55 pm 13:55 Sunny 59 15.1 16 -9.1 18 18 S 7 11 30.14 1021 10 16 0.00 0.00
2:55 pm 14:55 Sunny 62 16.9 16 -9.1 16 16 SSW 10 17 30.13 1020 10 16 0.00 0.00
3:55 pm 15:55 Sunny 61 16.2 17 -8.2 18 18 SW 5 7 30.12 1020 10 16 0.00 0.00
4:55 pm 16:55 Sunny 57 14.1 14 -9.9 18 18 Calm 30.13 1020 10 16 0.00 0.00
5:55 pm 17:55 Clear 48 9 16 -9 27 27 Calm 30.14 1021 10 16 0.00 0.00
6:55 pm 18:55 Clear 46 7.8 16 -8.7 30 30 Calm 30.14 1021 10 16 0.00 0.00
7:55 pm 19:55 Clear 41 5 19 -7.2 41 41 Calm 30.16 1021 10 16 0.00 0.00
8:55 pm 20:55 Clear 37 3 19 -7.5 46 46 Calm 30.15 1021 10 16 0.00 0.00
9:55 pm 21:55 Clear 36 2.3 18 -7.6 48 48 Calm 30.15 1021 10 16 0.00 0.00
10:55 pm 22:55 Clear 31 -0.3 19 -7.1 60 60 Calm 30.16 1021 10 16 0.00 0.00
11:55 pm 23:55 Clear 33 0.4 19 -7.4 56 56 Calm 30.15 1021 10 16 0.00 0.00

Powered by AerisWeather